Time,TemperatureF,DewpointF,PressureIn,WindDirection,WindDirectionDegrees,WindSpeedMPH,WindSpeedGustMPH,Humidity,HourlyPrecipIn,Conditions,Clouds,dailyrainin,SoftwareType,DateUTC
2013-05-11 00:00:00,57.8,42.7,30.03,North,9,2.0,2.0,57,0.00,,,0.00,Wunderground v.1.13,2013-05-11 06:00:00,
2013-05-11 00:05:00,57.5,42.4,30.03,NNE,27,1.0,1.0,57,0.00,,,0.00,Wunderground v.1.13,2013-05-11 06:05:00,
2013-05-11 00:10:00,57.3,42.2,30.03,NNE,24,1.0,1.0,57,0.00,,,0.00,Wunderground v.1.13,2013-05-11 06:10:00,
2013-05-11 00:15:00,57.0,42.4,30.03,North,5,1.0,1.0,58,0.00,,,0.00,Wunderground v.1.13,2013-05-11 06:15:00,
2013-05-11 00:20:00,57.2,42.5,30.03,NNE,25,0.0,14.0,58,0.00,,,0.00,Wunderground v.1.13,2013-05-11 06:20:00,
2013-05-11 00:25:00,57.2,42.5,30.03,NNE,21,0.0,14.0,58,0.00,,,0.00,Wunderground v.1.13,2013-05-11 06:25:00,
2013-05-11 00:29:00,57.3,42.2,30.03,NE,38,0.0,14.0,57,0.00,,,0.00,Wunderground v.1.13,2013-05-11 06:29:00,
2013-05-11 00:34:00,57.3,42.2,30.03,NE,49,0.0,14.0,57,0.00,,,0.00,Wunderground v.1.13,2013-05-11 06:34:00,
2013-05-11 00:39:00,57.6,42.0,30.03,East,86,1.0,1.0,56,0.00,,,0.00,Wunderground v.1.13,2013-05-11 06:39:00,
2013-05-11 00:44:00,57.6,42.0,30.03,NNE,25,1.0,1.0,56,0.00,,,0.00,Wunderground v.1.13,2013-05-11 06:44:00,
2013-05-11 00:50:00,57.6,42.0,30.05,North,350,1.0,1.0,56,0.00,,,0.00,Wunderground v.1.13,2013-05-11 06:50:00,
2013-05-11 00:55:00,57.3,41.7,30.05,North,350,0.0,14.0,56,0.00,,,0.00,Wunderground v.1.13,2013-05-11 06:55:00,
2013-05-11 01:00:00,57.0,41.4,30.05,North,350,0.0,14.0,56,0.00,,,0.00,Wunderground v.1.13,2013-05-11 07:00:00,
2013-05-11 01:05:00,56.9,40.9,30.05,NNW,328,0.0,14.0,55,0.00,,,0.00,Wunderground v.1.13,2013-05-11 07:05:00,
2013-05-11 01:09:00,56.7,40.7,30.05,NNW,328,0.0,14.0,55,0.00,,,0.00,Wunderground v.1.13,2013-05-11 07:09:00,
2013-05-11 01:20:00,56.2,40.7,30.05,North,5,1.0,1.0,56,0.00,,,0.00,Wunderground v.1.13,2013-05-11 07:20:00,
2013-05-11 01:25:00,56.0,40.5,30.05,NW,324,1.0,1.0,56,0.00,,,0.00,Wunderground v.1.13,2013-05-11 07:25:00,
2013-05-11 01:29:00,55.9,40.9,30.05,North,351,2.0,2.0,57,0.00,,,0.00,Wunderground v.1.13,2013-05-11 07:29:00,
2013-05-11 01:34:00,55.6,41.0,30.06,NNW,332,1.0,14.0,58,0.00,,,0.00,Wunderground v.1.13,2013-05-11 07:34:00,
2013-05-11 01:39:00,55.1,41.0,30.06,North,351,2.0,2.0,59,0.00,,,0.00,Wunderground v.1.13,2013-05-11 07:39:00,
2013-05-11 01:44:00,54.5,41.3,30.06,North,5,1.0,1.0,61,0.00,,,0.00,Wunderground v.1.13,2013-05-11 07:44:00,
2013-05-11 01:49:00,54.2,41.0,30.06,North,351,2.0,14.0,61,0.00,,,0.00,Wunderground v.1.13,2013-05-11 07:49:00,
2013-05-11 01:54:00,54.4,41.2,30.06,North,9,4.0,14.0,61,0.00,,,0.00,Wunderground v.1.13,2013-05-11 07:54:00,
2013-05-11 01:59:00,54.1,40.9,30.06,NNE,30,5.0,14.0,61,0.00,,,0.00,Wunderground v.1.13,2013-05-11 07:59:00,
2013-05-11 02:05:00,53.6,40.9,30.06,North,360,4.0,14.0,62,0.00,,,0.00,Wunderground v.1.13,2013-05-11 08:05:00,
2013-05-11 02:10:00,53.3,40.6,30.06,NNW,342,2.0,14.0,62,0.00,,,0.00,Wunderground v.1.13,2013-05-11 08:10:00,
2013-05-11 02:15:00,53.2,40.5,30.06,North,351,2.0,14.0,62,0.00,,,0.00,Wunderground v.1.13,2013-05-11 08:15:00,
2013-05-11 02:24:00,53.1,40.4,30.06,North,9,3.0,14.0,62,0.00,,,0.00,Wunderground v.1.13,2013-05-11 08:24:00,
2013-05-11 02:29:00,53.1,40.0,30.06,North,360,3.0,3.0,61,0.00,,,0.00,Wunderground v.1.13,2013-05-11 08:29:00,
2013-05-11 02:34:00,53.2,39.2,30.07,NNE,24,5.0,14.0,59,0.00,,,0.00,Wunderground v.1.13,2013-05-11 08:34:00,
2013-05-11 02:39:00,53.2,39.7,30.07,NNE,22,4.0,14.0,60,0.00,,,0.00,Wunderground v.1.13,2013-05-11 08:39:00,
2013-05-11 02:45:00,52.8,39.3,30.07,NNE,13,2.0,14.0,60,0.00,,,0.00,Wunderground v.1.13,2013-05-11 08:45:00,
2013-05-11 02:50:00,52.6,39.5,30.07,NNE,14,3.0,3.0,61,0.00,,,0.00,Wunderground v.1.13,2013-05-11 08:50:00,
2013-05-11 02:55:00,52.3,39.7,30.07,NNE,26,4.0,4.0,62,0.00,,,0.00,Wunderground v.1.13,2013-05-11 08:55:00,
2013-05-11 02:59:00,52.0,39.4,30.07,NE,42,3.0,14.0,62,0.00,,,0.00,Wunderground v.1.13,2013-05-11 08:59:00,
2013-05-11 03:04:00,52.0,39.0,30.08,NNW,336,3.0,14.0,61,0.00,,,0.00,Wunderground v.1.13,2013-05-11 09:04:00,
2013-05-11 03:09:00,51.9,38.9,30.08,NNE,15,4.0,4.0,61,0.00,,,0.00,Wunderground v.1.13,2013-05-11 09:09:00,
2013-05-11 03:15:00,51.4,38.8,30.08,NNE,20,3.0,3.0,62,0.00,,,0.00,Wunderground v.1.13,2013-05-11 09:15:00,
2013-05-11 03:19:00,51.1,38.5,30.09,NNW,336,1.0,1.0,62,0.00,,,0.00,Wunderground v.1.13,2013-05-11 09:19:00,
2013-05-11 03:24:00,50.7,38.6,30.09,NNE,24,1.0,1.0,63,0.00,,,0.00,Wunderground v.1.13,2013-05-11 09:24:00,
2013-05-11 03:29:00,50.2,38.1,30.09,NNE,17,0.0,14.0,63,0.00,,,0.00,Wunderground v.1.13,2013-05-11 09:29:00,
2013-05-11 03:35:00,49.9,38.2,30.09,North,360,0.0,14.0,64,0.00,,,0.00,Wunderground v.1.13,2013-05-11 09:35:00,
2013-05-11 03:44:00,49.6,37.9,30.09,North,360,0.0,14.0,64,0.00,,,0.00,Wunderground v.1.13,2013-05-11 09:44:00,
2013-05-11 03:54:00,49.4,36.5,30.10,North,360,0.0,14.0,61,0.00,,,0.00,Wunderground v.1.13,2013-05-11 09:54:00,
2013-05-11 03:59:00,49.4,35.2,30.10,NNE,19,1.0,14.0,58,0.00,,,0.00,Wunderground v.1.13,2013-05-11 09:59:00,
2013-05-11 04:05:00,49.4,34.8,30.11,North,350,1.0,1.0,57,0.00,,,0.00,Wunderground v.1.13,2013-05-11 10:05:00,
2013-05-11 04:10:00,49.2,34.6,30.11,North,350,0.0,14.0,57,0.00,,,0.00,Wunderground v.1.13,2013-05-11 10:10:00,
2013-05-11 04:15:00,48.9,34.8,30.11,North,350,0.0,14.0,58,0.00,,,0.00,Wunderground v.1.13,2013-05-11 10:15:00,
2013-05-11 04:19:00,48.6,34.5,30.11,North,350,0.0,14.0,58,0.00,,,0.00,Wunderground v.1.13,2013-05-11 10:19:00,
2013-05-11 04:24:00,48.3,34.2,30.11,North,350,0.0,14.0,58,0.00,,,0.00,Wunderground v.1.13,2013-05-11 10:24:00,
2013-05-11 04:29:00,48.2,34.1,30.11,North,350,0.0,14.0,58,0.00,,,0.00,Wunderground v.1.13,2013-05-11 10:29:00,
2013-05-11 04:34:00,48.0,33.5,30.13,North,350,0.0,14.0,57,0.00,,,0.00,Wunderground v.1.13,2013-05-11 10:34:00,
2013-05-11 04:40:00,47.9,33.8,30.13,North,9,0.0,14.0,58,0.00,,,0.00,Wunderground v.1.13,2013-05-11 10:40:00,
2013-05-11 04:45:00,47.6,33.5,30.13,North,9,0.0,14.0,58,0.00,,,0.00,Wunderground v.1.13,2013-05-11 10:45:00,
2013-05-11 04:50:00,47.3,32.8,30.13,North,9,0.0,14.0,57,0.00,,,0.00,Wunderground v.1.13,2013-05-11 10:50:00,
2013-05-11 04:54:00,47.1,33.1,30.13,North,9,0.0,14.0,58,0.00,,,0.00,Wunderground v.1.13,2013-05-11 10:54:00,
2013-05-11 04:59:00,46.8,32.8,30.13,North,9,0.0,14.0,58,0.00,,,0.00,Wunderground v.1.13,2013-05-11 10:59:00,
2013-05-11 05:04:00,46.5,32.9,30.13,North,9,0.0,14.0,59,0.00,,,0.00,Wunderground v.1.13,2013-05-11 11:04:00,
2013-05-11 05:10:00,46.2,32.7,30.13,North,9,0.0,14.0,59,0.00,,,0.00,Wunderground v.1.13,2013-05-11 11:10:00,
2013-05-11 05:15:00,46.0,32.9,30.13,North,9,0.0,14.0,60,0.00,,,0.00,Wunderground v.1.13,2013-05-11 11:15:00,
2013-05-11 05:24:00,45.4,32.7,30.14,North,9,0.0,14.0,61,0.00,,,0.00,Wunderground v.1.13,2013-05-11 11:24:00,
2013-05-11 05:29:00,45.4,31.5,30.14,North,360,0.0,14.0,58,0.00,,,0.00,Wunderground v.1.13,2013-05-11 11:29:00,
2013-05-11 05:40:00,45.2,30.9,30.15,North,360,0.0,14.0,57,0.00,,,0.00,Wunderground v.1.13,2013-05-11 11:40:00,
2013-05-11 05:45:00,45.1,31.2,30.15,North,360,0.0,14.0,58,0.00,,,0.00,Wunderground v.1.13,2013-05-11 11:45:00,
2013-05-11 05:49:00,44.8,30.5,30.16,North,360,0.0,14.0,57,0.00,,,0.00,Wunderground v.1.13,2013-05-11 11:49:00,
2013-05-11 05:54:00,44.8,30.5,30.16,North,360,0.0,14.0,57,0.00,,,0.00,Wunderground v.1.13,2013-05-11 11:54:00,
2013-05-11 06:00:00,44.6,29.9,30.16,North,360,0.0,14.0,56,0.00,,,0.00,Wunderground v.1.13,2013-05-11 12:00:00,
2013-05-11 06:04:00,44.8,30.0,30.16,North,360,0.0,14.0,56,0.00,,,0.00,Wunderground v.1.13,2013-05-11 12:04:00,
2013-05-11 06:09:00,44.8,30.0,30.16,North,360,0.0,14.0,56,0.00,,,0.00,Wunderground v.1.13,2013-05-11 12:09:00,
2013-05-11 06:14:00,44.8,29.6,30.16,North,351,0.0,14.0,55,0.00,,,0.00,Wunderground v.1.13,2013-05-11 12:14:00,
2013-05-11 06:20:00,44.9,29.7,30.18,North,351,0.0,14.0,55,0.00,,,0.00,Wunderground v.1.13,2013-05-11 12:20:00,
2013-05-11 06:25:00,45.2,30.0,30.18,North,351,0.0,14.0,55,0.00,,,0.00,Wunderground v.1.13,2013-05-11 12:25:00,
2013-05-11 06:30:00,45.4,30.6,30.18,North,350,0.0,14.0,56,0.00,,,0.00,Wunderground v.1.13,2013-05-11 12:30:00,
2013-05-11 06:34:00,46.0,30.7,30.18,North,351,0.0,14.0,55,0.00,,,0.00,Wunderground v.1.13,2013-05-11 12:34:00,
2013-05-11 06:39:00,46.7,30.0,30.18,North,360,0.0,14.0,52,0.00,,,0.00,Wunderground v.1.13,2013-05-11 12:39:00,
2013-05-11 06:44:00,47.3,29.6,30.18,NNE,23,2.0,14.0,50,0.00,,,0.00,Wunderground v.1.13,2013-05-11 12:44:00,
2013-05-11 06:49:00,47.7,29.5,30.18,NNE,17,5.0,5.0,49,0.00,,,0.00,Wunderground v.1.13,2013-05-11 12:49:00,
2013-05-11 06:55:00,48.0,29.2,30.18,NE,34,6.0,14.0,48,0.00,,,0.00,Wunderground v.1.13,2013-05-11 12:55:00,
2013-05-11 07:00:00,48.3,29.5,30.18,NNE,13,6.0,6.0,48,0.00,,,0.00,Wunderground v.1.13,2013-05-11 13:00:00,
2013-05-11 07:04:00,48.6,29.3,30.18,NNE,19,5.0,14.0,47,0.00,,,0.00,Wunderground v.1.13,2013-05-11 13:04:00,
2013-05-11 07:09:00,48.8,28.9,30.18,NNE,22,5.0,14.0,46,0.00,,,0.00,Wunderground v.1.13,2013-05-11 13:09:00,
2013-05-11 07:15:00,48.8,28.4,30.18,North,351,6.0,14.0,45,0.00,,,0.00,Wunderground v.1.13,2013-05-11 13:15:00,
2013-05-11 07:20:00,48.9,28.5,30.18,North,360,5.0,5.0,45,0.00,,,0.00,Wunderground v.1.13,2013-05-11 13:20:00,
2013-05-11 07:29:00,49.5,28.5,30.18,NNE,23,2.0,2.0,44,0.00,,,0.00,Wunderground v.1.13,2013-05-11 13:29:00,
2013-05-11 07:34:00,49.9,28.3,30.18,NNE,23,3.0,3.0,43,0.00,,,0.00,Wunderground v.1.13,2013-05-11 13:34:00,
2013-05-11 07:40:00,50.1,27.3,30.18,NNE,26,4.0,4.0,41,0.00,,,0.00,Wunderground v.1.13,2013-05-11 13:40:00,
2013-05-11 07:44:00,50.1,27.3,30.18,NE,45,5.0,5.0,41,0.00,,,0.00,Wunderground v.1.13,2013-05-11 13:44:00,
2013-05-11 07:49:00,50.2,27.4,30.18,NE,54,6.0,14.0,41,0.00,,,0.00,Wunderground v.1.13,2013-05-11 13:49:00,
2013-05-11 07:54:00,50.1,27.3,30.18,NE,42,6.0,14.0,41,0.00,,,0.00,Wunderground v.1.13,2013-05-11 13:54:00,
2013-05-11 08:00:00,50.7,27.8,30.18,NNE,14,5.0,5.0,41,0.00,,,0.00,Wunderground v.1.13,2013-05-11 14:00:00,
2013-05-11 08:04:00,51.0,26.9,30.19,NNE,19,3.0,14.0,39,0.00,,,0.00,Wunderground v.1.13,2013-05-11 14:04:00,
2013-05-11 08:09:00,51.3,27.2,30.19,NE,40,3.0,14.0,39,0.00,,,0.00,Wunderground v.1.13,2013-05-11 14:09:00,
2013-05-11 08:14:00,51.4,26.6,30.19,NNE,13,3.0,3.0,38,0.00,,,0.00,Wunderground v.1.13,2013-05-11 14:14:00,
2013-05-11 08:20:00,50.8,25.4,30.19,North,10,3.0,3.0,37,0.00,,,0.00,Wunderground v.1.13,2013-05-11 14:20:00,
2013-05-11 08:25:00,50.5,24.5,30.19,NE,38,4.0,4.0,36,0.00,,,0.00,Wunderground v.1.13,2013-05-11 14:25:00,
2013-05-11 08:30:00,50.8,26.1,30.19,NE,54,2.0,2.0,38,0.00,,,0.00,Wunderground v.1.13,2013-05-11 14:30:00,
2013-05-11 08:34:00,51.3,25.2,30.20,ENE,62,1.0,14.0,36,0.00,,,0.00,Wunderground v.1.13,2013-05-11 14:34:00,
2013-05-11 08:39:00,51.7,24.9,30.20,ENE,59,2.0,14.0,35,0.00,,,0.00,Wunderground v.1.13,2013-05-11 14:39:00,
2013-05-11 08:44:00,52.2,23.9,30.20,NNE,19,2.0,2.0,33,0.00,,,0.00,Wunderground v.1.13,2013-05-11 14:44:00,
2013-05-11 08:50:00,52.8,23.7,30.19,NNE,22,2.0,2.0,32,0.00,,,0.00,Wunderground v.1.13,2013-05-11 14:50:00,
2013-05-11 08:55:00,53.2,22.5,30.19,NE,47,2.0,2.0,30,0.00,,,0.00,Wunderground v.1.13,2013-05-11 14:55:00,
2013-05-11 09:00:00,52.5,22.7,30.19,NE,46,2.0,2.0,31,0.00,,,0.00,Wunderground v.1.13,2013-05-11 15:00:00,
2013-05-11 09:05:00,52.9,23.0,30.20,NE,44,1.0,14.0,31,0.00,,,0.00,Wunderground v.1.13,2013-05-11 15:05:00,
2013-05-11 09:10:00,53.5,23.6,30.20,NNW,348,1.0,1.0,31,0.00,,,0.00,Wunderground v.1.13,2013-05-11 15:10:00,
2013-05-11 09:14:00,53.6,22.1,30.20,NE,38,1.0,1.0,29,0.00,,,0.00,Wunderground v.1.13,2013-05-11 15:14:00,
2013-05-11 09:19:00,54.1,23.3,30.20,North,360,1.0,1.0,30,0.00,,,0.00,Wunderground v.1.13,2013-05-11 15:19:00,
2013-05-11 09:30:00,54.5,23.7,30.20,NNE,20,0.0,14.0,30,0.00,,,0.00,Wunderground v.1.13,2013-05-11 15:30:00,
2013-05-11 09:35:00,54.7,23.8,30.19,NE,37,1.0,1.0,30,0.00,,,0.00,Wunderground v.1.13,2013-05-11 15:35:00,
2013-05-11 09:40:00,54.7,23.0,30.19,NNE,18,2.0,14.0,29,0.00,,,0.00,Wunderground v.1.13,2013-05-11 15:40:00,
2013-05-11 09:44:00,55.0,22.4,30.19,NNE,32,1.0,1.0,28,0.00,,,0.00,Wunderground v.1.13,2013-05-11 15:44:00,
2013-05-11 09:50:00,55.0,22.4,30.18,North,360,1.0,14.0,28,0.00,,,0.00,Wunderground v.1.13,2013-05-11 15:50:00,
2013-05-11 09:55:00,55.4,24.4,30.18,NNE,22,1.0,1.0,30,0.00,,,0.00,Wunderground v.1.13,2013-05-11 15:55:00,
2013-05-11 10:00:00,55.4,22.8,30.18,NNW,341,2.0,2.0,28,0.00,,,0.00,Wunderground v.1.13,2013-05-11 16:00:00,
2013-05-11 10:05:00,55.9,23.2,30.18,NNE,15,3.0,3.0,28,0.00,,,0.00,Wunderground v.1.13,2013-05-11 16:05:00,
2013-05-11 10:14:00,56.0,23.3,30.18,NNW,342,3.0,14.0,28,0.00,,,0.00,Wunderground v.1.13,2013-05-11 16:14:00,
2013-05-11 10:19:00,56.3,23.6,30.18,NNE,20,4.0,4.0,28,0.00,,,0.00,Wunderground v.1.13,2013-05-11 16:19:00,
2013-05-11 10:24:00,56.9,24.1,30.18,NW,321,1.0,1.0,28,0.00,,,0.00,Wunderground v.1.13,2013-05-11 16:24:00,
2013-05-11 10:30:00,57.0,23.3,30.18,NNE,32,0.0,14.0,27,0.00,,,0.00,Wunderground v.1.13,2013-05-11 16:30:00,
2013-05-11 10:35:00,57.2,24.3,30.18,NE,40,1.0,14.0,28,0.00,,,0.00,Wunderground v.1.13,2013-05-11 16:35:00,
2013-05-11 10:39:00,57.5,22.8,30.18,North,351,2.0,14.0,26,0.00,,,0.00,Wunderground v.1.13,2013-05-11 16:39:00,
2013-05-11 10:49:00,57.3,21.7,30.18,ENE,59,2.0,2.0,25,0.00,,,0.00,Wunderground v.1.13,2013-05-11 16:49:00,
2013-05-11 10:55:00,58.1,24.3,30.18,NE,39,2.0,14.0,27,0.00,,,0.00,Wunderground v.1.13,2013-05-11 16:55:00,
2013-05-11 11:00:00,58.4,23.6,30.18,North,9,2.0,2.0,26,0.00,,,0.00,Wunderground v.1.13,2013-05-11 17:00:00,
2013-05-11 11:05:00,58.6,21.9,30.18,North,360,2.0,14.0,24,0.00,,,0.00,Wunderground v.1.13,2013-05-11 17:05:00,
2013-05-11 11:14:00,58.9,22.1,30.18,North,360,2.0,2.0,24,0.00,,,0.00,Wunderground v.1.13,2013-05-11 17:14:00,
2013-05-11 11:24:00,59.2,24.3,30.18,NNE,18,1.0,1.0,26,0.00,,,0.00,Wunderground v.1.13,2013-05-11 17:24:00,
2013-05-11 11:29:00,59.9,23.9,30.18,North,11,1.0,1.0,25,0.00,,,0.00,Wunderground v.1.13,2013-05-11 17:29:00,
2013-05-11 11:34:00,60.1,24.1,30.18,NNE,30,1.0,1.0,25,0.00,,,0.00,Wunderground v.1.13,2013-05-11 17:34:00,
2013-05-11 11:39:00,59.9,24.9,30.18,NNW,344,0.0,14.0,26,0.00,,,0.00,Wunderground v.1.13,2013-05-11 17:39:00,
2013-05-11 11:44:00,60.1,24.1,30.18,NNW,346,0.0,14.0,25,0.00,,,0.00,Wunderground v.1.13,2013-05-11 17:44:00,
2013-05-11 11:49:00,60.2,24.2,30.17,NNE,29,1.0,14.0,25,0.00,,,0.00,Wunderground v.1.13,2013-05-11 17:49:00,
2013-05-11 12:00:00,60.4,24.4,30.17,North,350,1.0,14.0,25,0.00,,,0.00,Wunderground v.1.13,2013-05-11 18:00:00,
2013-05-11 12:10:00,60.5,25.4,30.17,NNE,30,1.0,1.0,26,0.00,,,0.00,Wunderground v.1.13,2013-05-11 18:10:00,
2013-05-11 12:20:00,61.0,22.9,30.16,NW,315,1.0,1.0,23,0.00,,,0.00,Wunderground v.1.13,2013-05-11 18:20:00,
2013-05-11 12:29:00,62.1,23.8,30.16,WNW,301,0.0,14.0,23,0.00,,,0.00,Wunderground v.1.13,2013-05-11 18:29:00,
2013-05-11 12:35:00,61.8,23.6,30.15,NNE,17,0.0,14.0,23,0.00,,,0.00,Wunderground v.1.13,2013-05-11 18:35:00,
2013-05-11 12:40:00,61.2,24.1,30.15,North,351,1.0,1.0,24,0.00,,,0.00,Wunderground v.1.13,2013-05-11 18:40:00,
2013-05-11 12:44:00,61.8,25.6,30.15,NW,316,1.0,1.0,25,0.00,,,0.00,Wunderground v.1.13,2013-05-11 18:44:00,
2013-05-11 12:49:00,62.3,25.0,30.15,NNW,327,2.0,2.0,24,0.00,,,0.00,Wunderground v.1.13,2013-05-11 18:49:00,
2013-05-11 12:55:00,61.8,22.5,30.15,NNW,329,2.0,2.0,22,0.00,,,0.00,Wunderground v.1.13,2013-05-11 18:55:00,
2013-05-11 13:00:00,62.0,25.7,30.15,NNE,22,1.0,1.0,25,0.00,,,0.00,Wunderground v.1.13,2013-05-11 19:00:00,
2013-05-11 13:09:00,62.3,26.0,30.15,NNW,336,1.0,14.0,25,0.00,,,0.00,Wunderground v.1.13,2013-05-11 19:09:00,
2013-05-11 13:14:00,61.6,23.4,30.15,NE,41,1.0,1.0,23,0.00,,,0.00,Wunderground v.1.13,2013-05-11 19:14:00,
2013-05-11 13:19:00,62.0,25.7,30.14,NNE,12,1.0,1.0,25,0.00,,,0.00,Wunderground v.1.13,2013-05-11 19:19:00,
2013-05-11 13:24:00,62.6,24.2,30.14,North,360,1.0,1.0,23,0.00,,,0.00,Wunderground v.1.13,2013-05-11 19:24:00,
2013-05-11 13:29:00,62.9,26.5,30.14,NNW,336,1.0,1.0,25,0.00,,,0.00,Wunderground v.1.13,2013-05-11 19:29:00,
2013-05-11 13:34:00,63.4,26.9,30.13,NW,324,2.0,14.0,25,0.00,,,0.00,Wunderground v.1.13,2013-05-11 19:34:00,
2013-05-11 13:39:00,63.1,26.7,30.13,North,360,3.0,14.0,25,0.00,,,0.00,Wunderground v.1.13,2013-05-11 19:39:00,
2013-05-11 13:44:00,63.2,24.7,30.13,NNE,24,2.0,2.0,23,0.00,,,0.00,Wunderground v.1.13,2013-05-11 19:44:00,
2013-05-11 13:50:00,63.4,25.9,30.13,NNE,31,1.0,14.0,24,0.00,,,0.00,Wunderground v.1.13,2013-05-11 19:50:00,
2013-05-11 13:55:00,63.4,23.8,30.13,North,9,1.0,1.0,22,0.00,,,0.00,Wunderground v.1.13,2013-05-11 19:55:00,
2013-05-11 13:59:00,63.5,28.0,30.13,North,360,1.0,14.0,26,0.00,,,0.00,Wunderground v.1.13,2013-05-11 19:59:00,
2013-05-11 14:04:00,63.7,24.1,30.12,WNW,302,1.0,1.0,22,0.00,,,0.00,Wunderground v.1.13,2013-05-11 20:04:00,
2013-05-11 14:09:00,64.5,28.8,30.12,NNE,18,1.0,14.0,26,0.00,,,0.00,Wunderground v.1.13,2013-05-11 20:09:00,
2013-05-11 14:15:00,65.2,26.4,30.12,NW,320,1.0,1.0,23,0.00,,,0.00,Wunderground v.1.13,2013-05-11 20:15:00,
2013-05-11 14:19:00,65.0,26.3,30.12,WNW,282,1.0,1.0,23,0.00,,,0.00,Wunderground v.1.13,2013-05-11 20:19:00,
2013-05-11 14:24:00,65.2,24.2,30.12,WSW,242,1.0,1.0,21,0.00,,,0.00,Wunderground v.1.13,2013-05-11 20:24:00,
2013-05-11 14:30:00,65.3,24.3,30.12,NNW,334,1.0,1.0,21,0.00,,,0.00,Wunderground v.1.13,2013-05-11 20:30:00,
2013-05-11 14:35:00,65.8,26.9,30.11,NW,313,0.0,14.0,23,0.00,,,0.00,Wunderground v.1.13,2013-05-11 20:35:00,
2013-05-11 14:39:00,65.8,23.6,30.11,North,5,2.0,14.0,20,0.00,,,0.00,Wunderground v.1.13,2013-05-11 20:39:00,
2013-05-11 14:44:00,65.8,25.9,30.11,NNW,342,4.0,4.0,22,0.00,,,0.00,Wunderground v.1.13,2013-05-11 20:44:00,
2013-05-11 14:49:00,65.5,25.6,30.10,SSW,196,2.0,2.0,22,0.00,,,0.00,Wunderground v.1.13,2013-05-11 20:49:00,
2013-05-11 14:55:00,65.5,25.6,30.10,NW,313,2.0,14.0,22,0.00,,,0.00,Wunderground v.1.13,2013-05-11 20:55:00,
2013-05-11 15:05:00,65.3,26.5,30.10,WNW,286,4.0,14.0,23,0.00,,,0.00,Wunderground v.1.13,2013-05-11 21:05:00,
2013-05-11 15:14:00,65.8,24.7,30.10,NNW,336,2.0,2.0,21,0.00,,,0.00,Wunderground v.1.13,2013-05-11 21:14:00,
2013-05-11 15:19:00,66.0,26.0,30.09,NNE,22,0.0,14.0,22,0.00,,,0.00,Wunderground v.1.13,2013-05-11 21:19:00,
2013-05-11 15:24:00,67.1,26.9,30.09,NW,319,1.0,1.0,22,0.00,,,0.00,Wunderground v.1.13,2013-05-11 21:24:00,
2013-05-11 15:30:00,67.3,24.8,30.09,North,350,1.0,1.0,20,0.00,,,0.00,Wunderground v.1.13,2013-05-11 21:30:00,
2013-05-11 15:34:00,66.9,25.7,30.09,SW,236,2.0,14.0,21,0.00,,,0.00,Wunderground v.1.13,2013-05-11 21:34:00,
2013-05-11 15:39:00,66.3,26.3,30.09,WSW,255,3.0,3.0,22,0.00,,,0.00,Wunderground v.1.13,2013-05-11 21:39:00,
2013-05-11 15:44:00,66.0,27.1,30.09,WSW,242,2.0,14.0,23,0.00,,,0.00,Wunderground v.1.13,2013-05-11 21:44:00,
2013-05-11 15:49:00,65.3,25.4,30.08,West,270,1.0,1.0,22,0.00,,,0.00,Wunderground v.1.13,2013-05-11 21:49:00,
2013-05-11 15:54:00,64.5,24.8,30.08,West,261,1.0,1.0,22,0.00,,,0.00,Wunderground v.1.13,2013-05-11 21:54:00,
2013-05-11 15:59:00,64.2,24.5,30.08,WSW,237,0.0,14.0,22,0.00,,,0.00,Wunderground v.1.13,2013-05-11 21:59:00,
2013-05-11 16:05:00,63.7,25.2,30.07,SSW,211,0.0,14.0,23,0.00,,,0.00,Wunderground v.1.13,2013-05-11 22:05:00,
2013-05-11 16:10:00,63.7,24.1,30.07,SSW,211,0.0,14.0,22,0.00,,,0.00,Wunderground v.1.13,2013-05-11 22:10:00,
2013-05-11 16:15:00,64.0,24.4,30.07,SSW,211,0.0,14.0,22,0.00,,,0.00,Wunderground v.1.13,2013-05-11 22:15:00,
2013-05-11 16:19:00,64.7,24.9,30.07,SSW,211,0.0,14.0,22,0.00,,,0.00,Wunderground v.1.13,2013-05-11 22:19:00,
2013-05-11 16:24:00,65.3,26.5,30.07,SSW,211,0.0,14.0,23,0.00,,,0.00,Wunderground v.1.13,2013-05-11 22:24:00,
2013-05-11 16:29:00,65.6,25.7,30.07,SSW,211,0.0,14.0,22,0.00,,,0.00,Wunderground v.1.13,2013-05-11 22:29:00,
2013-05-11 16:34:00,65.6,26.8,30.07,SSW,211,0.0,14.0,23,0.00,,,0.00,Wunderground v.1.13,2013-05-11 22:34:00,
2013-05-11 16:40:00,65.6,26.8,30.07,SW,216,0.0,14.0,23,0.00,,,0.00,Wunderground v.1.13,2013-05-11 22:40:00,
2013-05-11 16:45:00,64.8,25.0,30.07,SE,144,0.0,14.0,22,0.00,,,0.00,Wunderground v.1.13,2013-05-11 22:45:00,
2013-05-11 16:54:00,65.5,25.6,30.06,ESE,109,0.0,14.0,22,0.00,,,0.00,Wunderground v.1.13,2013-05-11 22:54:00,
2013-05-11 17:04:00,66.1,26.1,30.06,NE,55,0.0,14.0,22,0.00,,,0.00,Wunderground v.1.13,2013-05-11 23:04:00,
2013-05-11 17:10:00,66.6,27.6,30.06,ENE,62,1.0,1.0,23,0.00,,,0.00,Wunderground v.1.13,2013-05-11 23:10:00,
2013-05-11 17:19:00,66.8,27.8,30.05,WSW,237,1.0,14.0,23,0.00,,,0.00,Wunderground v.1.13,2013-05-11 23:19:00,
2013-05-11 17:24:00,66.4,27.4,30.05,NNW,333,1.0,1.0,23,0.00,,,0.00,Wunderground v.1.13,2013-05-11 23:24:00,
2013-05-11 17:30:00,66.1,27.2,30.05,WSW,237,1.0,1.0,23,0.00,,,0.00,Wunderground v.1.13,2013-05-11 23:30:00,
2013-05-11 17:35:00,66.3,28.4,30.05,NW,306,0.0,14.0,24,0.00,,,0.00,Wunderground v.1.13,2013-05-11 23:35:00,
2013-05-11 17:39:00,66.8,27.8,30.05,WNW,297,0.0,14.0,23,0.00,,,0.00,Wunderground v.1.13,2013-05-11 23:39:00,
2013-05-11 17:44:00,66.4,26.4,30.05,WNW,297,0.0,14.0,22,0.00,,,0.00,Wunderground v.1.13,2013-05-11 23:44:00,
2013-05-11 17:49:00,66.6,26.5,30.04,WNW,297,0.0,14.0,22,0.00,,,0.00,Wunderground v.1.13,2013-05-11 23:49:00,
2013-05-11 18:00:00,66.1,27.2,30.04,WSW,241,0.0,14.0,23,0.00,,,0.00,Wunderground v.1.13,2013-05-12 00:00:00,
2013-05-11 18:05:00,66.4,26.4,30.04,WSW,237,0.0,14.0,22,0.00,,,0.00,Wunderground v.1.13,2013-05-12 00:05:00,
2013-05-11 18:09:00,66.6,26.5,30.04,WSW,237,0.0,14.0,22,0.00,,,0.00,Wunderground v.1.13,2013-05-12 00:09:00,
2013-05-11 18:14:00,66.8,26.7,30.04,WSW,237,0.0,14.0,22,0.00,,,0.00,Wunderground v.1.13,2013-05-12 00:14:00,
2013-05-11 18:20:00,66.8,27.8,30.04,WSW,237,0.0,14.0,23,0.00,,,0.00,Wunderground v.1.13,2013-05-12 00:20:00,
2013-05-11 18:25:00,66.8,27.8,30.04,North,351,0.0,14.0,23,0.00,,,0.00,Wunderground v.1.13,2013-05-12 00:25:00,
2013-05-11 18:30:00,66.8,27.8,30.04,North,351,0.0,14.0,23,0.00,,,0.00,Wunderground v.1.13,2013-05-12 00:30:00,
2013-05-11 18:34:00,66.9,27.9,30.03,North,350,0.0,14.0,23,0.00,,,0.00,Wunderground v.1.13,2013-05-12 00:34:00,
2013-05-11 18:39:00,67.1,28.0,30.03,North,350,0.0,14.0,23,0.00,,,0.00,Wunderground v.1.13,2013-05-12 00:39:00,
2013-05-11 18:44:00,66.8,28.8,30.03,NNW,348,0.0,14.0,24,0.00,,,0.00,Wunderground v.1.13,2013-05-12 00:44:00,
2013-05-11 18:50:00,66.8,27.8,30.02,NW,321,0.0,14.0,23,0.00,,,0.00,Wunderground v.1.13,2013-05-12 00:50:00,
2013-05-11 18:54:00,66.6,27.6,30.02,NW,321,0.0,14.0,23,0.00,,,0.00,Wunderground v.1.13,2013-05-12 00:54:00,
2013-05-11 18:59:00,66.3,28.4,30.02,NW,321,0.0,14.0,24,0.00,,,0.00,Wunderground v.1.13,2013-05-12 00:59:00,
2013-05-11 19:04:00,66.1,28.2,30.02,NW,321,0.0,14.0,24,0.00,,,0.00,Wunderground v.1.13,2013-05-12 01:04:00,
2013-05-11 19:09:00,65.6,27.8,30.02,NW,321,0.0,14.0,24,0.00,,,0.00,Wunderground v.1.13,2013-05-12 01:09:00,
2013-05-11 19:14:00,65.2,28.5,30.02,NNW,345,0.0,14.0,25,0.00,,,0.00,Wunderground v.1.13,2013-05-12 01:14:00,
2013-05-11 19:20:00,64.7,29.0,30.02,North,360,0.0,14.0,26,0.00,,,0.00,Wunderground v.1.13,2013-05-12 01:20:00,
2013-05-11 19:24:00,64.2,27.6,30.02,North,360,0.0,14.0,25,0.00,,,0.00,Wunderground v.1.13,2013-05-12 01:24:00,
2013-05-11 19:29:00,63.9,29.2,30.02,North,360,0.0,14.0,27,0.00,,,0.00,Wunderground v.1.13,2013-05-12 01:29:00,
2013-05-11 19:39:00,62.9,29.3,30.02,North,360,0.0,14.0,28,0.00,,,0.00,Wunderground v.1.13,2013-05-12 01:39:00,
2013-05-11 19:45:00,62.3,28.7,30.02,North,360,0.0,14.0,28,0.00,,,0.00,Wunderground v.1.13,2013-05-12 01:45:00,
2013-05-11 19:50:00,61.8,28.3,30.02,North,360,0.0,14.0,28,0.00,,,0.00,Wunderground v.1.13,2013-05-12 01:50:00,
2013-05-11 19:55:00,61.3,28.7,30.02,North,360,0.0,14.0,29,0.00,,,0.00,Wunderground v.1.13,2013-05-12 01:55:00,
2013-05-11 19:59:00,61.0,30.9,30.02,North,360,0.0,14.0,32,0.00,,,0.00,Wunderground v.1.13,2013-05-12 01:59:00,
2013-05-11 20:04:00,60.5,31.2,30.02,North,360,0.0,14.0,33,0.00,,,0.00,Wunderground v.1.13,2013-05-12 02:04:00,
2013-05-11 20:10:00,59.8,31.3,30.02,North,360,0.0,14.0,34,0.00,,,0.00,Wunderground v.1.13,2013-05-12 02:10:00,
2013-05-11 20:15:00,59.2,31.5,30.02,North,360,0.0,14.0,35,0.00,,,0.00,Wunderground v.1.13,2013-05-12 02:15:00,
2013-05-11 20:19:00,58.6,31.7,30.02,North,360,0.0,14.0,36,0.00,,,0.00,Wunderground v.1.13,2013-05-12 02:19:00,
2013-05-11 20:24:00,58.0,31.2,30.02,North,360,0.0,14.0,36,0.00,,,0.00,Wunderground v.1.13,2013-05-12 02:24:00,
2013-05-11 20:30:00,58.0,30.5,30.02,North,360,0.0,14.0,35,0.00,,,0.00,Wunderground v.1.13,2013-05-12 02:30:00,
2013-05-11 20:34:00,57.8,31.7,30.02,North,360,0.0,14.0,37,0.00,,,0.00,Wunderground v.1.13,2013-05-12 02:34:00,
2013-05-11 20:39:00,57.5,32.7,30.02,North,360,0.0,14.0,39,0.00,,,0.00,Wunderground v.1.13,2013-05-12 02:39:00,
2013-05-11 20:44:00,56.9,32.8,30.02,North,360,0.0,14.0,40,0.00,,,0.00,Wunderground v.1.13,2013-05-12 02:44:00,
2013-05-11 20:49:00,56.5,33.1,30.03,North,360,0.0,14.0,41,0.00,,,0.00,Wunderground v.1.13,2013-05-12 02:49:00,
2013-05-11 20:59:00,55.9,33.1,30.03,North,360,0.0,14.0,42,0.00,,,0.00,Wunderground v.1.13,2013-05-12 02:59:00,
2013-05-11 21:04:00,55.4,32.7,30.03,North,360,0.0,14.0,42,0.00,,,0.00,Wunderground v.1.13,2013-05-12 03:04:00,
2013-05-11 21:09:00,55.0,32.3,30.03,North,360,0.0,14.0,42,0.00,,,0.00,Wunderground v.1.13,2013-05-12 03:09:00,
2013-05-11 21:15:00,54.5,33.0,30.03,North,360,0.0,14.0,44,0.00,,,0.00,Wunderground v.1.13,2013-05-12 03:15:00,
2013-05-11 21:25:00,53.8,33.5,30.03,North,360,0.0,14.0,46,0.00,,,0.00,Wunderground v.1.13,2013-05-12 03:25:00,
2013-05-11 21:29:00,53.6,32.8,30.03,North,360,0.0,14.0,45,0.00,,,0.00,Wunderground v.1.13,2013-05-12 03:29:00,
2013-05-11 21:39:00,53.1,32.8,30.04,North,360,0.0,14.0,46,0.00,,,0.00,Wunderground v.1.13,2013-05-12 03:39:00,
2013-05-11 21:50:00,54.1,32.1,30.03,SSE,161,0.0,14.0,43,0.00,,,0.00,Wunderground v.1.13,2013-05-12 03:50:00,
2013-05-11 21:54:00,54.1,32.1,30.03,SSE,161,0.0,14.0,43,0.00,,,0.00,Wunderground v.1.13,2013-05-12 03:54:00,
2013-05-11 21:59:00,53.9,32.5,30.03,SSE,154,0.0,14.0,44,0.00,,,0.00,Wunderground v.1.13,2013-05-12 03:59:00,
2013-05-11 22:04:00,55.0,31.1,30.02,SSE,163,2.0,14.0,40,0.00,,,0.00,Wunderground v.1.13,2013-05-12 04:04:00,
2013-05-11 22:09:00,55.4,30.8,30.02,South,174,3.0,3.0,39,0.00,,,0.00,Wunderground v.1.13,2013-05-12 04:09:00,
2013-05-11 22:14:00,55.3,30.7,30.02,SSE,159,2.0,2.0,39,0.00,,,0.00,Wunderground v.1.13,2013-05-12 04:14:00,
2013-05-11 22:20:00,55.1,31.2,30.01,SSE,152,0.0,14.0,40,0.00,,,0.00,Wunderground v.1.13,2013-05-12 04:20:00,
2013-05-11 22:24:00,55.1,30.6,30.01,South,171,0.0,14.0,39,0.00,,,0.00,Wunderground v.1.13,2013-05-12 04:24:00,
2013-05-11 22:29:00,55.1,29.9,30.01,SE,144,0.0,14.0,38,0.00,,,0.00,Wunderground v.1.13,2013-05-12 04:29:00,
2013-05-11 22:34:00,54.8,30.9,30.01,SSE,161,1.0,14.0,40,0.00,,,0.00,Wunderground v.1.13,2013-05-12 04:34:00,
2013-05-11 22:39:00,54.2,30.4,30.01,South,184,1.0,1.0,40,0.00,,,0.00,Wunderground v.1.13,2013-05-12 04:39:00,
2013-05-11 22:45:00,53.9,30.7,30.01,SSE,158,1.0,1.0,41,0.00,,,0.00,Wunderground v.1.13,2013-05-12 04:45:00,
2013-05-11 22:49:00,53.8,30.6,30.01,South,182,1.0,1.0,41,0.00,,,0.00,Wunderground v.1.13,2013-05-12 04:49:00,
2013-05-11 22:54:00,53.6,31.0,30.01,South,173,0.0,14.0,42,0.00,,,0.00,Wunderground v.1.13,2013-05-12 04:54:00,
2013-05-11 22:59:00,53.5,31.0,30.01,SSE,152,0.0,14.0,42,0.00,,,0.00,Wunderground v.1.13,2013-05-12 04:59:00,
2013-05-11 23:04:00,53.3,30.8,30.01,SE,139,0.0,14.0,42,0.00,,,0.00,Wunderground v.1.13,2013-05-12 05:04:00,
2013-05-11 23:09:00,52.9,31.6,30.01,SE,139,0.0,14.0,44,0.00,,,0.00,Wunderground v.1.13,2013-05-12 05:09:00,
2013-05-11 23:15:00,52.3,31.6,30.01,SE,139,0.0,14.0,45,0.00,,,0.00,Wunderground v.1.13,2013-05-12 05:15:00,
2013-05-11 23:20:00,51.9,31.7,30.02,SE,139,0.0,14.0,46,0.00,,,0.00,Wunderground v.1.13,2013-05-12 05:20:00,
2013-05-11 23:25:00,51.4,31.8,30.02,SE,139,0.0,14.0,47,0.00,,,0.00,Wunderground v.1.13,2013-05-12 05:25:00,
2013-05-11 23:34:00,51.7,30.5,30.02,SSE,152,0.0,14.0,44,0.00,,,0.00,Wunderground v.1.13,2013-05-12 05:34:00,
2013-05-11 23:39:00,52.0,30.7,30.02,SSE,152,0.0,14.0,44,0.00,,,0.00,Wunderground v.1.13,2013-05-12 05:39:00,
2013-05-11 23:45:00,52.0,30.7,30.02,SSE,152,0.0,14.0,44,0.00,,,0.00,Wunderground v.1.13,2013-05-12 05:45:00,
2013-05-11 23:54:00,51.9,30.6,30.03,SSE,153,0.0,14.0,44,0.00,,,0.00,Wunderground v.1.13,2013-05-12 05:54:00,
2013-05-11 23:59:00,51.7,31.0,30.03,SSE,153,0.0,14.0,45,0.00,,,0.00,Wunderground v.1.13,2013-05-12 05:59:00,